Weather History for Grosse Ile, MI

Change the Weather History Date:

Tuesday, August 27, 2013

  Actual Average (KDTW) Record (KDTW)
Temperature  
Mean Temperature 76 °F 71 °F  
Max Temperature 80 °F 80 °F 98 °F (1948)
Min Temperature 73 °F 61 °F 47 °F (1964)
Degree Days  
Heating Degree Days 0 0  
Month to date heating degree days 0  
Since 1 June heating degree days 37  
Since 1 July heating degree days 2  
Cooling Degree Days 12 6  
Month to date cooling degree days 201  
Year to date cooling degree days 687  
Since 1 June cooling degree days 639  
Growing Degree Days 26 (Base 50)    
Moisture  
Dew Point 72 °F    
Average Humidity 84    
Maximum Humidity 94    
Minimum Humidity 78    
Precipitation  
Precipitation 1.05 in 0.09 in 1.30 in (1903)
Month to date precipitation 2.61  
Year to date precipitation 22.04  
Snow  
Snow 0.00 in 0.00 in 0.00 in ()
Month to date snowfall 0.0  
Since 1 June snowfall 0.0  
Since 1 July snowfall 0.0  
Snow Depth -    
Sea Level Pressure  
Sea Level Pressure 29.94 in    
Wind  
Wind Speed 5 mph (SW)    
Max Wind Speed 22 mph    
Max Gust Speed 32 mph    
Visibility 9 miles    
Events Rain    
T = Trace of Precipitation, MM = Missing Value Source: NWS Daily Summary

Daily Weather History Graph

Daily Weather History Graph

Search for Another Location

Airport:

Trip Planner

Search our weather history database for the weather conditions in past years. The results will help you decide how hot, cold, wet, or windy it might be!

Date:

Astronomy

Aug. 27, 2013 Rise Set
Actual Time 6:53 AM EDT 8:14 PM EDT
Civil Twilight 6:24 AM EDT 8:43 PM EDT
Nautical Twilight 5:49 AM EDT 9:18 PM EDT
Astronomical Twilight 5:12 AM EDT 9:54 PM EDT
Moon 11:58 PM EDT (8/27) 1:58 PM EDT (8/27)
Length of Visible Light 14h 19m
Length of Day
13h 21m
Waning Gibbous, 57% of the Moon is Illuminated
Aug 27
Waning Gibbous
Aug 28
Last Quarter
Sep 5
New
Sep 12
First Quarter
Sep 19
Full

Hourly Weather History & Observations

Time (EDT) Temp. Heat Index Dew Point Humidity Pressure Visibility Wind Dir Wind Speed Gust Speed Precip Events Conditions
12:14 AM 78.8 °F - 71.6 °F 78% 29.98 in 10.0 mi WSW 4.6 mph - N/A   Mostly Cloudy
12:34 AM 78.8 °F - 71.6 °F 78% 29.99 in 10.0 mi WSW 3.5 mph - N/A   Mostly Cloudy
12:54 AM 78.8 °F - 71.6 °F 78% 29.99 in 10.0 mi WSW 4.6 mph - N/A   Overcast
1:14 AM 78.8 °F - 71.6 °F 78% 29.99 in 10.0 mi WSW 3.5 mph - N/A   Overcast
1:34 AM 78.8 °F - 71.6 °F 78% 29.99 in 10.0 mi Calm Calm - N/A   Overcast
1:54 AM 77.0 °F - 71.6 °F 83% 29.98 in 10.0 mi WSW 4.6 mph - N/A   Overcast
2:14 AM 77.0 °F - 71.6 °F 83% 29.97 in 10.0 mi SW 4.6 mph - N/A   Overcast
2:34 AM 77.0 °F - 71.6 °F 83% 29.96 in 10.0 mi WSW 4.6 mph - N/A   Overcast
2:54 AM 77.0 °F - 69.8 °F 78% 29.97 in 10.0 mi West 3.5 mph - N/A   Overcast
3:14 AM 77.0 °F - 69.8 °F 78% 29.97 in 10.0 mi WSW 3.5 mph - N/A   Overcast
3:34 AM 77.0 °F - 69.8 °F 78% 29.96 in 10.0 mi West 4.6 mph - N/A   Overcast
3:54 AM 77.0 °F - 69.8 °F 78% 29.96 in 10.0 mi WSW 4.6 mph - N/A   Overcast
4:14 AM 75.2 °F - 69.8 °F 83% 29.96 in 10.0 mi WSW 5.8 mph - N/A   Overcast
4:34 AM 75.2 °F - 69.8 °F 83% 29.96 in 10.0 mi WSW 5.8 mph - N/A   Overcast
4:54 AM 75.2 °F - 69.8 °F 83% 29.95 in 10.0 mi West 4.6 mph - N/A   Overcast
5:14 AM 75.2 °F - 69.8 °F 83% 29.94 in 10.0 mi West 5.8 mph - N/A   Overcast
5:34 AM 75.2 °F - 69.8 °F 83% 29.94 in 10.0 mi West 4.6 mph - N/A   Overcast
5:54 AM 75.2 °F - 69.8 °F 83% 29.94 in 10.0 mi West 5.8 mph - N/A   Overcast
6:15 AM 75.2 °F - 69.8 °F 83% 29.94 in 10.0 mi West 3.5 mph - N/A   Overcast
6:34 AM 75.2 °F - 69.8 °F 83% 29.95 in 10.0 mi West 5.8 mph - N/A   Overcast
6:54 AM 75.2 °F - 69.8 °F 83% 29.94 in 10.0 mi West 5.8 mph - N/A   Mostly Cloudy
7:14 AM 75.2 °F - 69.8 °F 83% 29.97 in 10.0 mi NNW 8.1 mph - N/A Rain Rain
7:34 AM 73.4 °F - 69.8 °F 88% 30.00 in 1.8 mi NW 21.9 mph 32.2 mph 0.25 in Rain Heavy Rain
7:54 AM 73.4 °F - 69.8 °F 88% 29.99 in 10.0 mi NW 13.8 mph 20.7 mph 0.66 in Rain Heavy Rain
8:14 AM 73.4 °F - 69.8 °F 88% 30.00 in 10.0 mi WNW 6.9 mph - 0.05 in Rain Rain
8:34 AM 73.4 °F - 69.8 °F 88% 30.00 in 10.0 mi West 5.8 mph - 0.08 in Rain Rain
8:54 AM 73.4 °F - 69.8 °F 88% 29.99 in 10.0 mi NNW 4.6 mph - 0.12 in Rain Rain
9:14 AM 73.4 °F - 69.8 °F 88% 29.99 in 10.0 mi Calm Calm - 0.04 in Rain Rain
9:34 AM 73.4 °F - 69.8 °F 88% 29.97 in 10.0 mi Calm Calm - 0.07 in Rain Rain
9:54 AM 73.4 °F - 69.8 °F 88% 29.96 in 10.0 mi NNE 3.5 mph - 0.10 in Rain Light Rain
10:14 AM 73.4 °F - 69.8 °F 88% 29.95 in 10.0 mi SSW 4.6 mph - N/A Rain Light Rain
10:34 AM 75.2 °F - 71.6 °F 89% 29.95 in 10.0 mi South 4.6 mph - N/A   Clear
10:54 AM 75.2 °F - 69.8 °F 83% 29.94 in 10.0 mi South 8.1 mph - N/A   Scattered Clouds
11:14 AM 75.2 °F - 71.6 °F 89% 29.95 in 10.0 mi SSW 8.1 mph - N/A   Clear
11:34 AM 73.4 °F - 71.6 °F 94% 29.96 in 7.0 mi SW 10.4 mph - N/A   Clear
11:54 AM 75.2 °F - 71.6 °F 89% 29.97 in 10.0 mi SW 6.9 mph - N/A   Scattered Clouds
12:14 PM 75.2 °F - 71.6 °F 89% 29.98 in 10.0 mi WSW 8.1 mph - N/A   Mostly Cloudy
12:34 PM 75.2 °F - 71.6 °F 89% 29.98 in 10.0 mi WSW 4.6 mph - N/A   Mostly Cloudy
12:54 PM 75.2 °F - 71.6 °F 89% 29.97 in 10.0 mi SW 5.8 mph - N/A   Scattered Clouds
1:14 PM 75.2 °F - 71.6 °F 89% 29.97 in 10.0 mi SW 8.1 mph - N/A   Scattered Clouds
1:34 PM 78.8 °F - 71.6 °F 78% 29.96 in 10.0 mi SW 6.9 mph - N/A   Clear
1:54 PM 78.8 °F - 73.4 °F 83% 29.95 in 10.0 mi SSW 6.9 mph - N/A   Clear
2:14 PM 80.6 °F 85.4 °F 73.4 °F 79% 29.94 in 10.0 mi SSW 8.1 mph - N/A   Clear
2:34 PM 80.6 °F 85.4 °F 73.4 °F 79% 29.93 in 7.0 mi South 8.1 mph - N/A   Clear
2:54 PM 80.6 °F 85.4 °F 73.4 °F 79% 29.93 in 5.0 mi South 9.2 mph - N/A   Haze
3:14 PM 80.6 °F 85.4 °F 73.4 °F 79% 29.93 in 5.0 mi South 8.1 mph - N/A   Haze
3:34 PM 80.6 °F 85.4 °F 73.4 °F 79% 29.92 in 5.0 mi South 6.9 mph - N/A   Haze
3:54 PM 80.6 °F 86.2 °F 75.2 °F 84% 29.91 in 7.0 mi South 6.9 mph - N/A   Clear
4:14 PM 80.6 °F 85.4 °F 73.4 °F 79% 29.91 in 7.0 mi South 5.8 mph - N/A   Clear
4:34 PM 80.6 °F 85.4 °F 73.4 °F 79% 29.91 in 7.0 mi South 5.8 mph - N/A   Scattered Clouds
4:54 PM 80.6 °F 85.4 °F 73.4 °F 79% 29.91 in 10.0 mi South 3.5 mph - N/A   Scattered Clouds
5:14 PM 78.8 °F - 73.4 °F 83% 29.90 in 7.0 mi Calm Calm - N/A   Scattered Clouds
5:34 PM 80.6 °F 85.4 °F 73.4 °F 79% 29.90 in 7.0 mi South 3.5 mph - N/A   Mostly Cloudy
5:54 PM 80.6 °F 86.2 °F 75.2 °F 84% 29.89 in 7.0 mi Calm Calm - N/A   Scattered Clouds
6:14 PM 80.6 °F 86.2 °F 75.2 °F 84% 29.89 in 10.0 mi Calm Calm - N/A   Clear
6:34 PM 80.6 °F 85.4 °F 73.4 °F 79% 29.90 in 10.0 mi Calm Calm - N/A   Scattered Clouds
6:54 PM 78.8 °F - 73.4 °F 83% 29.88 in 7.0 mi South 3.5 mph - N/A   Clear
7:14 PM 78.8 °F - 73.4 °F 83% 29.88 in 7.0 mi Calm Calm - N/A   Clear
7:34 PM 78.8 °F - 73.4 °F 83% 29.89 in 7.0 mi SSE 3.5 mph - N/A   Clear
7:54 PM 78.8 °F - 73.4 °F 83% 29.89 in 7.0 mi SSE 3.5 mph - N/A Rain Light Rain
8:14 PM 78.8 °F - 73.4 °F 83% 29.89 in 7.0 mi Calm Calm - N/A Rain Light Rain
8:34 PM 77.0 °F - 73.4 °F 89% 29.89 in 7.0 mi Calm Calm - 0.01 in Rain Light Rain
8:54 PM 77.0 °F - 73.4 °F 89% 29.89 in 4.0 mi Calm Calm - 0.01 in Rain Light Rain
9:14 PM 77.0 °F - 73.4 °F 89% 29.91 in 4.0 mi West 3.5 mph - 0.04 in Rain Rain
9:34 PM 78.8 °F - 73.4 °F 83% 29.90 in 10.0 mi SW 4.6 mph - 0.08 in Rain Light Rain
9:53 PM 78.8 °F - 73.4 °F 83% 29.90 in 7.0 mi Calm Calm - 0.10 in Rain Rain
10:14 PM 77.0 °F - 73.4 °F 89% 29.87 in 7.0 mi ESE 3.5 mph - 0.02 in Rain Light Rain
10:34 PM 75.2 °F - 71.6 °F 89% 29.86 in 10.0 mi SE 4.6 mph - 0.03 in Rain Light Rain
10:54 PM 77.0 °F - 71.6 °F 83% 29.84 in 10.0 mi South 8.1 mph - 0.03 in Rain Rain
11:14 PM 77.0 °F - 71.6 °F 83% 29.86 in 10.0 mi South 5.8 mph - N/A Rain Light Rain
11:34 PM 75.2 °F - 71.6 °F 89% 29.87 in 10.0 mi East 4.6 mph - 0.01 in Rain Light Rain
11:54 PM 75.2 °F - 71.6 °F 89% 29.85 in 10.0 mi South 3.5 mph - 0.03 in Rain Light Rain